Location: Rounton
(54.4000°N, 1.3500°W)
Time: 22:58:14
(UTC+00:00)

Vanguard 3 - Pass Details

Date: 02 December 2021
Orbit: 508 x 3260 km, 33.3° (Epoch: 17 January)

Event Time Altitude Azimuth Distance (km) Brightness Sun altitude
Rises 02:22:56 0° 194° (SSW) 7,070 - -47.3°
Reaches altitude 10° 02:30:07 10° 179° (S) 6,185 - -46.4°
Exits shadow 02:32:15 13° 173° (S) 5,966 11.3 -46.2°
Maximum altitude 02:40:58 18° 145° (SE) 5,395 11.3 -45.1°
Drops below altitude 10° 02:50:51 10° 111° (ESE) 5,616 11.7 -43.8°
Sets 02:56:44 0° 94° (E) 6,213 12.3 -43.1°
